Content
SEND FEEDBACK

Daily
Averages
Monthly
Summary
United States of America

VINTON, LOUISIANA


Home > North America > United States > Louisiana
Elevation: 20 feet     Latitude: 30 12N     Longitude: 093 35W

WEATHER
 
SELECT A DAY
Number of Records: 187,327;   Date Range: 11/22/06 - 7/20/14
 
SHARE

PRINT THIS DATA

[ ← Previous Day ]
WEATHER ALMANAC - JUNE 24, 2013
[ Next Day → ]
[ °C ]   °F
We're sorry. There is no daily almanac available for Vinton, Louisiana on June 24, 2013.
WEATHER BY HOUR - JUNE 24, 2013
[ °C ]   °F
Local TimeTemperatureDewpointHumidityBarometerVisibilityWind DirectionWind SpeedGust SpeedPrecipitationEventsConditions
12:35 AM80.8 °F75.6 °F84 %30.04 in10.0 miSSE (160°)3.5 mphClear
12:55 AM80.4 °F75.6 °F85 %30.04 in10.0 miSouth (170°)3.5 mphClear
1:15 AM80.1 °F75.6 °F86 %30.04 in10.0 miSouth (170°)3.5 mphClear
1:35 AM79.9 °F75.4 °F86 %30.05 in10.0 miSSW (200°)3.5 mphClear
1:55 AM78.4 °F75.6 °F91 %30.05 in10.0 miCalmClear
2:15 AM78.1 °F76.1 °F94 %30.05 in10.0 miEast (90°)3.5 mphScattered Clouds
2:35 AM78.8 °F76.1 °F91 %30.04 in10.0 miCalmClear
2:55 AM78.3 °F76.3 °F94 %30.05 in10.0 miCalmClear
3:15 AM78.4 °F76.1 °F92 %30.05 in10.0 miCalmClear
3:35 AM77.9 °F76.1 °F94 %30.04 in10.0 miCalmScattered Clouds
3:55 AM77.5 °F76.1 °F95 %30.05 in10.0 miEast (80°)3.5 mphScattered Clouds
4:15 AM77.4 °F76.1 °F96 %30.05 in10.0 miCalmScattered Clouds
4:35 AM77.0 °F75.7 °F96 %30.05 in10.0 miCalmScattered Clouds
4:55 AM77.0 °F75.7 °F96 %30.05 in10.0 miNE (50°)3.5 mphClear
5:15 AM77.2 °F75.9 °F96 %30.06 in10.0 miENE (70°)4.6 mphClear
5:35 AM78.3 °F76.3 °F94 %30.06 in10.0 miEast (90°)4.6 mphScattered Clouds
5:55 AM78.1 °F72.7 °F83 %30.07 in10.0 miSSW (200°)4.6 mph16.1 mphRainLight Rain
6:15 AM76.6 °F71.1 °F83 %30.07 in10.0 miCalmScattered Clouds
6:35 AM76.1 °F71.1 °F84 %30.07 in4.0 miSSE (150°)3.5 mph0.20 inRainLight Rain
6:55 AM75.9 °F73.8 °F93 %30.09 in10.0 miSSW (210°)5.8 mph0.20 inMostly Cloudy
7:15 AM76.3 °F72.7 °F89 %30.09 in2.0 miCalm0.52 inRainHeavy Rain
7:35 AM78.8 °F74.1 °F85 %30.09 in10.0 miCalm0.54 inRainRain
7:55 AM79.2 °F75.0 °F87 %30.09 in10.0 miSSW (200°)3.5 mph0.54 inScattered Clouds
8:15 AM80.8 °F74.7 °F82 %30.10 in10.0 miCalmClear
8:35 AM81.3 °F74.3 °F79 %30.09 in10.0 miSSE (150°)3.5 mphClear
8:55 AM82.6 °F75.9 °F80 %30.10 in10.0 miEast (100°)4.6 mphClear
9:15 AM84.4 °F75.9 °F76 %30.11 in10.0 miSSE (160°)4.6 mphClear
9:35 AM83.1 °F75.0 °F76 %30.10 in10.0 miSouth (180°)10.4 mphMostly Cloudy
9:55 AM84.6 °F73.4 °F69 %30.11 in10.0 miSSE (160°)8.1 mphScattered Clouds
10:15 AM85.8 °F71.4 °F62 %30.11 in10.0 miSouth (170°)6.9 mphClear
10:35 AM85.8 °F74.5 °F69 %30.11 in10.0 miSSE (150°)10.4 mphScattered Clouds
10:55 AM86.7 °F73.8 °F65 %30.11 in10.0 miESE (120°)9.2 mphClear
11:15 AM88.2 °F75.6 °F66 %30.11 in10.0 miSouth (180°)10.4 mphClear
11:35 AM88.7 °F76.3 °F67 %30.11 in10.0 miSouth (170°)9.2 mphClear
11:55 AM89.4 °F74.3 °F61 %30.10 in10.0 miSouth (170°)11.5 mph17.3 mphClear
12:15 PM89.8 °F75.4 °F62 %30.10 in10.0 miSSE (160°)9.2 mph17.3 mphScattered Clouds
12:35 PM89.1 °F75.6 °F64 %30.09 in10.0 miSSE (160°)9.2 mphScattered Clouds
12:55 PM90.3 °F73.9 °F58 %30.09 in10.0 miSouth (180°)11.5 mphScattered Clouds
1:15 PM90.9 °F73.8 °F57 %30.09 in10.0 miSouth (180°)13.8 mph18.4 mphScattered Clouds
1:35 PM90.5 °F74.7 °F60 %30.08 in10.0 miSouth (180°)11.5 mphScattered Clouds
1:55 PM91.2 °F76.6 °F62 %30.07 in10.0 miSSE (160°)15.0 mph20.7 mphScattered Clouds
2:15 PM88.7 °F74.1 °F62 %30.07 in10.0 miSouth (170°)11.5 mphScattered Clouds
2:35 PM88.2 °F75.7 °F67 %30.07 in10.0 miSSE (150°)10.4 mphScattered Clouds
2:55 PM89.1 °F75.2 °F63 %30.06 in10.0 miSouth (170°)11.5 mphClear
3:15 PM89.8 °F74.7 °F61 %30.06 in10.0 miSSE (160°)12.7 mphClear
3:35 PM90.0 °F74.5 °F60 %30.06 in10.0 miSouth (170°)13.8 mph19.6 mphClear
3:55 PM90.5 °F74.1 °F58 %30.05 in10.0 miSouth (180°)15.0 mph19.6 mphClear
4:15 PM89.8 °F74.8 °F61 %30.04 in10.0 miSouth (190°)13.8 mph20.7 mphScattered Clouds
4:35 PM86.4 °F75.6 °F70 %30.05 in10.0 miSSW (210°)13.8 mph24.2 mphScattered Clouds
4:55 PM86.7 °F76.3 °F71 %30.04 in10.0 miSouth (180°)10.4 mphClear
5:15 PM88.5 °F76.5 °F67 %30.04 in10.0 miSSW (200°)12.7 mph16.1 mphClear
5:35 PM88.7 °F74.3 °F62 %30.03 in10.0 miSouth (180°)10.4 mph17.3 mphClear
5:55 PM88.5 °F74.3 °F63 %30.04 in10.0 miSSE (160°)11.5 mphScattered Clouds
6:15 PM86.9 °F73.9 °F65 %30.04 in10.0 miSouth (170°)11.5 mphScattered Clouds
6:35 PM86.5 °F74.1 °F66 %30.03 in10.0 miSSE (160°)12.7 mphClear
6:55 PM86.2 °F74.5 °F68 %30.03 in10.0 miSouth (180°)6.9 mphClear
7:15 PM85.6 °F74.3 °F69 %30.04 in10.0 miSouth (170°)9.2 mphClear
7:35 PM85.1 °F74.3 °F70 %30.04 in10.0 miSouth (170°)5.8 mphScattered Clouds
7:55 PM84.7 °F73.8 °F69 %30.04 in10.0 miSSE (160°)8.1 mphScattered Clouds
8:15 PM83.8 °F73.8 °F72 %30.04 in10.0 miSSE (150°)6.9 mphClear
8:35 PM83.1 °F74.8 °F76 %30.04 in10.0 miSSE (160°)5.8 mphScattered Clouds
8:55 PM82.4 °F74.7 °F77 %30.04 in10.0 miSouth (170°)4.6 mphScattered Clouds
9:15 PM81.1 °F74.5 °F80 %30.05 in10.0 miSouth (170°)3.5 mphScattered Clouds
9:35 PM80.6 °F74.8 °F83 %30.04 in10.0 miSouth (170°)4.6 mphClear
9:55 PM80.1 °F74.5 °F83 %30.04 in10.0 miSouth (170°)4.6 mphClear
10:15 PM79.9 °F74.3 °F83 %30.05 in10.0 miSSE (150°)5.8 mphClear
10:35 PM80.1 °F74.5 °F83 %30.05 in10.0 miSSE (160°)4.6 mphClear
10:55 PM79.2 °F74.3 °F85 %30.05 in10.0 miSSE (160°)3.5 mphClear
11:15 PM79.5 °F74.3 °F84 %30.05 in10.0 miSSE (150°)5.8 mphClear
11:35 PM79.9 °F74.3 °F83 %30.05 in10.0 miSSE (160°)5.8 mphClear
11:55 PM79.7 °F74.3 °F83 %30.05 in10.0 miSSE (160°)5.8 mphClear
Hourly data recorded from KUXL, located miles away from Vinton, Louisiana







STORIES FROM OUR PARTNERS